Location: Newark
(41.0400°S, 62.7845°W)
Time: 22:43:50
(UTC+00:00)

Vanguard 2 - Pass Details

Date: 10 December 2021
Orbit: 554 x 2935 km, 32.9° (Epoch: 27 January)

Event Time Altitude Azimuth Distance (km) Brightness Sun altitude
Rises 04:15:32 0° 287° (WNW) 6,491 12.1 -26.0°
Reaches altitude 10° 04:19:40 10° 289° (WNW) 5,629 11.7 -25.9°
Maximum altitude 04:37:11 64° 4° (N) 3,075 10.2 -25.6°
Drops below altitude 10° 04:52:12 10° 81° (E) 4,911 11.6 -25.1°
Sets 04:55:32 0° 83° (E) 5,656 12.0 -24.9°
